Regional Weather Roundup
Issued by NWS Little Rock, AR

Home | Current Version | Previous Version | Graphics & Text | Print | Product List | Glossary On
Versions: 1 2 3 4 5 6 7 8 9 10 11 12 13 14 15 16 17 18 19 20 21 22 23 24 25 26 27 28 29 30 31 32
000
ASUS44 KLZK 250205
RWRLZK

WEATHER ROUNDUP FOR ARKANSAS
NATIONAL WEATHER SERVICE LITTLE ROCK AR
900 PM CDT FRI MAR 24 2017

NOTE: "FAIR" INDICATES FEW OR NO CLOUDS BELOW 12,000 FEET WITH NO
SIGNIFICANT WEATHER AND/OR OBSTRUCTIONS TO VISIBILITY.

ARZ001-003-010-029-250300-
NORTHWEST ARKANSAS

CITY           SKY/WX    TMP DP  RH WIND       PRES   REMARKS
FAYETTEVILLE   MOCLDY    56  55  97 E3        29.83S
FORT SMITH     CLOUDY    58  55  90 E7        29.80R
HARRISON       RAIN      57  54  89 S8G21     29.94R FOG
BENTONVILLE    MOCLDY    55  54  94 SE13      29.82F
ROGERS         MOCLDY    56  54  93 SE10      29.83F
SILOAM SPGS    CLOUDY    57  54  88 SE8       29.80F
HIGHFILL       MOCLDY    58  56  93 SE14      29.80S
SPRINGDALE     MOCLDY    55  54  94 SE6G13    29.84R
$$

ARZ004-005-016-250300-
NORTH CENTRAL ARKANSAS

CITY           SKY/WX    TMP DP  RH WIND       PRES   REMARKS
BATESVILLE     CLOUDY    73  55  53 S13G21    29.91F
FLIPPIN        CLOUDY    63  54  72 S8        29.88R
MTN HOME       LGT RAIN  62  57  83 SW15G29   29.89R
$$

ARZ040-041-250300-
WEST CENTRAL ARKANSAS

CITY           SKY/WX    TMP DP  RH WIND       PRES   REMARKS
MENA           CLOUDY    63  57  82 SW9G18    29.82F
MOUNT IDA      LGT RAIN  65  61  87 VRB7G18   29.83R
$$

ARZ009-017-025-026-028-250300-
NORTHEAST ARKANSAS

CITY           SKY/WX    TMP DP  RH WIND       PRES   REMARKS
CORNING        MOCLDY    68  61  77 SE15      29.96S
JONESBORO      MOCLDY    71  59  65 SE14      29.95F
NEWPORT        CLOUDY    71  61  70 SE16        N/A
WALNUT RIDGE   CLOUDY    70  57  64 SE17      29.93F
BLYTHEVILLE    CLOUDY    70  59  68 SE14G20   30.01S
$$

ARZ022-023-033-042-044-250300-
CENTRAL ARKANSAS

CITY           SKY/WX    TMP DP  RH WIND       PRES   REMARKS
LITTLE ROCK    CLOUDY    67  62  84 S6        29.89F
N LITTLE ROCK    N/A     67  60  78 S9G29     29.89F
JACKSONVILLE   CLOUDY    68  63  83 E3        29.87F
CONWAY           N/A     66  59  77 S29G35    29.86S HAZE
SEARCY         CLOUDY    73  59  61 S13       29.92F
HOT SPRINGS    RAIN      65  62  90 SE9G18    29.87R FOG
RUSSELLVILLE   RAIN      63  60  90 E5        29.82F FOG
CLINTON        LGT RAIN  61  61 100 CALM      29.89F
$$

ARZ036-250300-
EAST ARKANSAS

CITY           SKY/WX    TMP DP  RH WIND       PRES   REMARKS
WEST MEMPHIS   CLOUDY    72  60  66 SE17G30   29.98S
$$

ARZ050-053-066-070-073-250300-
SOUTHWEST ARKANSAS

CITY           SKY/WX    TMP DP  RH WIND       PRES   REMARKS
ARKADELPHIA    LGT RAIN  63  61  93 E5        29.85F FOG
CAMDEN         PTCLDY    73  57  56 SE18G29   29.85F
TEXARKANA      TSTM      63  61  93 SW15G26   29.86R FOG
EL DORADO      CLOUDY    74  59  59 S21G28    29.89S
DE QUEEN       TSTM      65  61  87 S15G31    29.80F
$$

ARZ056-057-069-250300-
SOUTHEAST ARKANSAS

CITY           SKY/WX    TMP DP  RH WIND       PRES   REMARKS
PINE BLUFF     CLOUDY    73  58  59 S15G25    29.90F
STUTTGART      CLOUDY    72  54  53 SE13      29.93F
MONTICELLO     CLOUDY    75  57  53 S8G17     29.93F

$$






USA.gov is the U.S. government's official web portal to all federal, state and local government web resources and services.